Weather History for Milton, FL

Change the Weather History Date:

Thursday, December 13, 2012

  Actual Average (KNSE) Record (KNSE)
Temperature  
Mean Temperature 50 °F -  
Max Temperature 64 °F 60 °F 78 °F (2001)
Min Temperature 36 °F 41 °F 30 °F (2010)
Degree Days  
Heating Degree Days 15    
Moisture  
Dew Point 38 °F    
Average Humidity 73    
Maximum Humidity 96    
Minimum Humidity 43    
Precipitation  
Precipitation 0.00 in - - ()
Sea Level Pressure  
Sea Level Pressure 30.24 in    
Wind  
Wind Speed 8 mph (NNE)    
Max Wind Speed 14 mph    
Max Gust Speed 21 mph    
Visibility 10 miles    
Events      
Averages and records for this station are not official NWS values.
T = Trace of Precipitation, MM = Missing Value Source: NWS Daily Summary

Daily Weather History Graph

Daily Weather History Graph

Search for Another Location

Airport:

Trip Planner

Search our weather history database for the weather conditions in past years. The results will help you decide how hot, cold, wet, or windy it might be!

Date:

Astronomy

Dec. 13, 2012 Rise Set
Actual Time 6:37 AM CST 4:48 PM CST
Civil Twilight 6:10 AM CST 5:14 PM CST
Nautical Twilight 5:40 AM CST 5:44 PM CST
Astronomical Twilight 5:11 AM CST 6:14 PM CST
Moon 6:46 AM CST (12/13) 5:28 PM CST (12/13)
Length of Visible Light 11h 04m
Length of Day
10h 10m
New Moon, 0% of the Moon is Illuminated
Dec 13
New Moon
Dec 19
First Quarter
Dec 28
Full
Jan 4
Last Quarter
Jan 11
New

Hourly Weather History & Observations

Time (CST) Temp. Windchill Dew Point Humidity Pressure Visibility Wind Dir Wind Speed Gust Speed Precip Events Conditions
12:56 AM 39.0 °F 32.3 °F 34.0 °F 82% 30.21 in 10.0 mi NNW 10.4 mph - N/A   Clear
1:56 AM 37.0 °F 30.4 °F 33.1 °F 86% 30.22 in 10.0 mi NNW 9.2 mph - N/A   Clear
2:56 AM 37.0 °F 31.0 °F 32.0 °F 82% 30.22 in 10.0 mi NNW 8.1 mph - N/A   Clear
3:56 AM 37.9 °F 31.5 °F 33.1 °F 83% 30.22 in 10.0 mi North 9.2 mph - N/A   Clear
4:56 AM 37.0 °F 29.8 °F 33.1 °F 86% 30.21 in 10.0 mi North 10.4 mph - N/A   Clear
5:56 AM 37.9 °F 33.5 °F 34.0 °F 86% 30.22 in 10.0 mi NNE 5.8 mph - N/A   Clear
6:56 AM 36.0 °F 30.3 °F 33.1 °F 89% 30.26 in 10.0 mi NNW 6.9 mph - N/A   Clear
7:56 AM 42.1 °F 37.7 °F 37.9 °F 85% 30.29 in 10.0 mi North 6.9 mph - N/A   Clear
8:56 AM 48.9 °F - 41.0 °F 74% 30.29 in 10.0 mi NNE 10.4 mph - N/A   Clear
9:56 AM 55.0 °F - 41.0 °F 59% 30.29 in 10.0 mi NNE 10.4 mph - N/A   Clear
10:56 AM 57.9 °F - 41.0 °F 53% 30.27 in 10.0 mi NE 13.8 mph 20.7 mph N/A   Clear
11:56 AM 60.1 °F - 39.9 °F 47% 30.26 in 10.0 mi NNE 5.8 mph - N/A   Clear
12:56 PM 63.0 °F - 41.0 °F 45% 30.23 in 10.0 mi ENE 9.2 mph - N/A   Clear
1:56 PM 64.0 °F - 41.0 °F 43% 30.21 in 10.0 mi Variable 4.6 mph - N/A   Clear
2:56 PM 64.0 °F - 41.0 °F 43% 30.19 in 10.0 mi NE 8.1 mph - N/A   Clear
3:56 PM 62.1 °F - 41.0 °F 46% 30.20 in 10.0 mi ENE 6.9 mph - N/A   Clear
4:56 PM 57.0 °F - 43.0 °F 59% 30.22 in 10.0 mi North 4.6 mph - N/A   Clear
6:56 PM 50.0 °F - 42.1 °F 74% 30.25 in 10.0 mi Calm Calm - N/A   Clear
7:56 PM 46.0 °F - 42.1 °F 86% 30.26 in 10.0 mi Calm Calm - N/A   Clear
8:56 PM 44.1 °F - 41.0 °F 89% 30.25 in 10.0 mi Calm Calm - N/A   Clear
9:56 PM 41.0 °F - 37.0 °F 86% 30.26 in 10.0 mi Calm Calm - N/A   Clear
10:56 PM 37.9 °F - 36.0 °F 93% 30.27 in 10.0 mi Calm Calm - N/A   Clear
11:56 PM 39.0 °F - 37.9 °F 96% 30.27 in 10.0 mi Calm Calm - N/A   Clear